OpenBCM V1.13 (Linux)

Packet Radio Mailbox

DB0FHN

[JN59NK Nuernberg]

 Login: GUEST





  
CX2SA  > KEPS     25.03.05 09:04l 277 Lines 7261 Bytes #999 (0) @ AMSAT
BID : ORB05083.D
Read: GUEST
Subj: Orbital Elements  05083.MICROS
Path: DB0FHN<DB0RGB<OK0PPL<DB0RES<DK0WUE<SP7MGD<7M3TJZ<EA5AKC<CX2SA
Sent: 050325/0657Z @:CX2SA.LAV.URY.SA #:27315 [Minas] FBB7.00e $:ORB05083.D
From: CX2SA@CX2SA.LAV.URY.SA
To  : KEPS@AMSAT


HR AMSAT ORBITAL ELEMENTS FOR THE MICROSATS
FROM WA5QGD FORT WORTH,TX March 24, 2005
SEND SUBSCRIBE/UNSUBSCRIBE TO majordomo@amsat.org ONLY
BID: ORB05083.D
TO ALL RADIO AMATEURS BT

Satellite: UO-14
Catalog number: 20437
Epoch time:      05082.63391429
Element set:    0737
Inclination:      098.1974 deg
RA of node:       097.1313 deg
Eccentricity:    0.0011803
Arg of perigee:   088.7941 deg
Mean anomaly:     271.4605 deg
Mean motion:   14.31403572 rev/day
Decay rate:        7.6e-07 rev/day^2
Epoch rev:           79179
Checksum:              314

Satellite: AO-16
Catalog number: 20439
Epoch time:      05083.07352972
Element set:     425
Inclination:      098.2144 deg
RA of node:       112.7891 deg
Eccentricity:    0.0011996
Arg of perigee:   095.5817 deg
Mean anomaly:     264.6736 deg
Mean motion:   14.31665241 rev/day
Decay rate:        4.4e-07 rev/day^2
Epoch rev:           79191
Checksum:              318

Satellite: WO-18
Catalog number: 20441
Epoch time:      05082.38372777
Element set:    0620
Inclination:      098.2276 deg
RA of node:       116.4370 deg
Eccentricity:    0.0012697
Arg of perigee:   096.2876 deg
Mean anomaly:     263.9769 deg
Mean motion:   14.31739494 rev/day
Decay rate:        3.9e-07 rev/day^2
Epoch rev:           79187
Checksum:              348

Satellite: LO-19
Catalog number: 20442
Epoch time:      05083.66981157
Element set:     354
Inclination:      098.2354 deg
RA of node:       122.0308 deg
Eccentricity:    0.0012951
Arg of perigee:   091.9449 deg
Mean anomaly:     268.3227 deg
Mean motion:   14.31911459 rev/day
Decay rate:        3.7e-07 rev/day^2
Epoch rev:           79212
Checksum:              304

Satellite: UO-22
Catalog number: 21575
Epoch time:      05082.84501801
Element set:    0362
Inclination:      098.2350 deg
RA of node:       051.4356 deg
Eccentricity:    0.0007068
Arg of perigee:   355.5055 deg
Mean anomaly:     004.6066 deg
Mean motion:   14.39471175 rev/day
Decay rate:        5.4e-07 rev/day^2
Epoch rev:           71822
Checksum:              281

Satellite: KO-23
Catalog number: 22077
Epoch time:      05082.70275851
Element set:    0425
Inclination:      066.0899 deg
RA of node:       325.4802 deg
Eccentricity:    0.0015457
Arg of perigee:   277.4168 deg
Mean anomaly:     082.5100 deg
Mean motion:   12.86428839 rev/day
Decay rate:       -3.7e-07 rev/day^2
Epoch rev:           59259
Checksum:              322

Satellite: AO-27
Catalog number: 22825
Epoch time:      05083.76015042
Element set:      94
Inclination:      098.2502 deg
RA of node:       083.7343 deg
Eccentricity:    0.0009149
Arg of perigee:   147.7997 deg
Mean anomaly:     212.3725 deg
Mean motion:   14.29119883 rev/day
Decay rate:        2.5e-07 rev/day^2
Epoch rev:           59916
Checksum:              319

Satellite: IO-26
Catalog number: 22826
Epoch time:      05082.54592029
Element set:    0759
Inclination:      098.2439 deg
RA of node:       083.8709 deg
Eccentricity:    0.0009476
Arg of perigee:   149.0432 deg
Mean anomaly:     211.1324 deg
Mean motion:   14.29359491 rev/day
Decay rate:        5.6e-07 rev/day^2
Epoch rev:           59905
Checksum:              330

Satellite: KO-25
Catalog number: 22828
Epoch time:      05083.61177150
Element set:      13
Inclination:      098.2392 deg
RA of node:       085.0958 deg
Eccentricity:    0.0010743
Arg of perigee:   125.8677 deg
Mean anomaly:     234.3500 deg
Mean motion:   14.29674069 rev/day
Decay rate:       -2.6e-07 rev/day^2
Epoch rev:           56743
Checksum:              306

Satellite: TO-31
Catalog number: 25396
Epoch time:      05082.73751465
Element set:    0207
Inclination:      098.5378 deg
RA of node:       152.5246 deg
Eccentricity:    0.0003537
Arg of perigee:   079.8540 deg
Mean anomaly:     280.3055 deg
Mean motion:   14.23661824 rev/day
Decay rate:       -4.3e-07 rev/day^2
Epoch rev:           34825
Checksum:              308

Satellite: GO-32
Catalog number: 25397
Epoch time:      05082.85675838
Element set:    0704
Inclination:      098.5288 deg
RA of node:       150.3208 deg
Eccentricity:    0.0002181
Arg of perigee:   098.6683 deg
Mean anomaly:     261.4717 deg
Mean motion:   14.23073484 rev/day
Decay rate:       1.39e-06 rev/day^2
Epoch rev:           34819
Checksum:              330

Satellite: UO-36
Catalog number: 25693
Epoch time:      05083.38304933
Element set:      25
Inclination:      064.5599 deg
RA of node:       184.1425 deg
Eccentricity:    0.0033447
Arg of perigee:   222.4310 deg
Mean anomaly:     137.4197 deg
Mean motion:   14.78481725 rev/day
Decay rate:       -8.1e-07 rev/day^2
Epoch rev:           31928
Checksum:              311

Satellite: SO-41
Catalog number: 26545
Epoch time:      05082.43554894
Element set:    0033
Inclination:      064.5569 deg
RA of node:       201.9509 deg
Eccentricity:    0.0041070
Arg of perigee:   320.0315 deg
Mean anomaly:     039.7766 deg
Mean motion:   14.80046981 rev/day
Decay rate:       1.44e-06 rev/day^2
Epoch rev:           24224
Checksum:              289

Satellite: MO-46
Catalog number: 26548
Epoch time:      05083.33982685
Element set:     136
Inclination:      064.5577 deg
RA of node:       182.8103 deg
Eccentricity:    0.0038925
Arg of perigee:   310.3273 deg
Mean anomaly:     049.4444 deg
Mean motion:   14.82659287 rev/day
Decay rate:       2.56e-06 rev/day^2
Epoch rev:           24270
Checksum:              327

Satellite: SO-42
Catalog number: 26549
Epoch time:      05083.71294087
Element set:      94
Inclination:      064.5562 deg
RA of node:       206.1819 deg
Eccentricity:    0.0041902
Arg of perigee:   325.6098 deg
Mean anomaly:     034.2295 deg
Mean motion:   14.78930611 rev/day
Decay rate:       2.74e-06 rev/day^2
Epoch rev:           24226
Checksum:              307

Satellite: NO-44
Catalog number: 26931
Epoch time:      05083.72358681
Element set:     998
Inclination:      067.0506 deg
RA of node:       085.3326 deg
Eccentricity:    0.0007105
Arg of perigee:   257.0282 deg
Mean anomaly:     103.0122 deg
Mean motion:   14.29369446 rev/day
Decay rate:        1.6e-07 rev/day^2
Epoch rev:           18169
Checksum:              301

Satellite: AO-49
Catalog number: 27605
Epoch time:      05083.81942820
Element set:     693
Inclination:      064.5594 deg
RA of node:       031.8428 deg
Eccentricity:    0.0085279
Arg of perigee:   256.7534 deg
Mean anomaly:     102.4091 deg
Mean motion:   14.72060026 rev/day
Decay rate:        7.8e-07 rev/day^2
Epoch rev:           12143
Checksum:              305

Satellite: SO-50
Catalog number: 27607
Epoch time:      05082.84888641
Element set:    0674
Inclination:      064.5598 deg
RA of node:       039.9666 deg
Eccentricity:    0.0086094
Arg of perigee:   255.8362 deg
Mean anomaly:     103.3188 deg
Mean motion:   14.70918426 rev/day
Decay rate:       3.23e-06 rev/day^2
Epoch rev:           12118
Checksum:              337

Satellite: AO-51
Catalog number: 28375
Epoch time:      05082.68865111
Element set:     213
Inclination:      098.2222 deg
RA of node:       148.6015 deg
Eccentricity:    0.0085010
Arg of perigee:   128.8806 deg
Mean anomaly:     232.0014 deg
Mean motion:   14.40443591 rev/day
Decay rate:       1.01e-06 rev/day^2
Epoch rev:            3830
Checksum:              258



Read previous mail | Read next mail


 14.07.2026 20:53:53lGo back Go up